TimeCDT,TemperatureF,Dew PointF,Humidity,Sea Level PressureIn,VisibilityMPH,Wind Direction,Wind SpeedMPH,Gust SpeedMPH,PrecipitationIn,Events,Conditions,WindDirDegrees,DateUTC
12:53 AM,71.1,68.0,90,30.01,10.0,NNE,5.8,-,N/A,,Clear,30,2013-08-13 05:53:00
1:53 AM,70.0,66.0,87,30.01,10.0,NE,4.6,-,N/A,,Clear,40,2013-08-13 06:53:00
2:53 AM,70.0,66.0,87,30.00,10.0,NE,5.8,-,N/A,,Clear,40,2013-08-13 07:53:00
3:53 AM,70.0,66.0,87,30.01,10.0,Calm,Calm,-,N/A,,Clear,0,2013-08-13 08:53:00
4:53 AM,69.1,64.9,87,30.01,10.0,Calm,Calm,-,N/A,,Clear,0,2013-08-13 09:53:00
5:53 AM,68.0,64.9,90,30.01,9.0,NE,4.6,-,N/A,,Clear,40,2013-08-13 10:53:00
6:53 AM,66.9,62.1,84,30.04,10.0,NE,6.9,-,N/A,,Clear,50,2013-08-13 11:53:00
7:53 AM,66.9,61.0,81,30.05,10.0,ENE,8.1,-,N/A,,Clear,60,2013-08-13 12:53:00
8:53 AM,69.1,61.0,75,30.08,10.0,ENE,4.6,-,N/A,,Clear,70,2013-08-13 13:53:00
9:53 AM,72.0,61.0,68,30.09,10.0,NE,5.8,-,N/A,,Clear,50,2013-08-13 14:53:00
10:53 AM,73.9,62.1,66,30.10,10.0,ENE,5.8,-,N/A,,Partly Cloudy,60,2013-08-13 15:53:00
11:53 AM,75.9,60.1,58,30.10,10.0,ENE,10.4,-,N/A,,Clear,70,2013-08-13 16:53:00
12:53 PM,77.0,57.9,52,30.09,10.0,NE,10.4,-,N/A,,Partly Cloudy,50,2013-08-13 17:53:00
1:53 PM,78.1,57.9,50,30.08,10.0,ENE,9.2,-,N/A,,Clear,70,2013-08-13 18:53:00
2:53 PM,79.0,57.9,48,30.07,10.0,NE,8.1,-,N/A,,Clear,40,2013-08-13 19:53:00
3:53 PM,79.0,57.9,48,30.06,10.0,ENE,8.1,-,N/A,,Clear,60,2013-08-13 20:53:00
4:53 PM,78.1,57.9,50,30.06,10.0,ENE,8.1,-,N/A,,Clear,70,2013-08-13 21:53:00
5:53 PM,78.1,57.0,48,30.05,10.0,NNE,6.9,-,N/A,,Clear,20,2013-08-13 22:53:00
6:53 PM,75.0,55.9,51,30.04,10.0,ENE,5.8,-,N/A,,Clear,60,2013-08-13 23:53:00
7:53 PM,73.0,57.9,59,30.04,10.0,East,3.5,-,N/A,,Clear,80,2013-08-14 00:53:00
8:53 PM,73.0,55.9,55,30.06,10.0,Calm,Calm,-,N/A,,Clear,0,2013-08-14 01:53:00
9:53 PM,70.0,57.9,65,30.08,10.0,Calm,Calm,-,N/A,,Clear,0,2013-08-14 02:53:00
10:53 PM,70.0,59.0,68,30.09,10.0,NW,3.5,-,N/A,,Clear,320,2013-08-14 03:53:00
11:53 PM,70.0,57.9,65,30.10,10.0,Calm,Calm,-,N/A,,Partly Cloudy,0,2013-08-14 04:53:00